Theta_e
293 288 285 288 289 290 289 287 286 290 294 290 291 292 293 295 295 295 296 295 298 300 303 306 313 316 317 319 323 328 334 338 341 340 338 338 337 337 339 341 341 341 341 342
289 286 292 293 293 291 290 287 287 291 294 290 290 290 293 294 295 295 295 295 297 298 299 309 314 315 315 315 317 324 332 335 338 339 338 336 335 336 339 339 341 345 343 341
287 291 296 294 292 290 289 287 288 288 292 292 289 287 290 294 296 297 297 296 297 298 299 305 312 314 314 313 316 322 326 328 329 334 335 332 332 333 333 334 335 337 343 346
290 295 293 292 290 292 286 293 292 290 287 282 290 281 288 290 292 294 295 295 296 298 299 301 311 311 313 314 313 317 320 319 320 326 330 331 330 327 329 330 334 334 338 338
290 291 291 290 291 296 292 296 291 290 286 282 285 280 285 289 289 292 294 296 296 296 298 299 307 313 314 312 311 313 314 313 314 317 319 323 324 328 329 329 329 329 333 336
292 298 294 293 298 298 298 293 290 286 283 277 284 282 284 288 289 291 295 299 300 300 299 299 303 311 311 311 310 311 311 311 312 313 317 319 319 318 322 323 325 326 329 331
292 293 297 299 293 296 294 289 279 277 277 279 285 282 286 290 294 296 297 298 298 299 300 298 305 309 311 309 309 311 310 310 312 313 312 313 314 315 316 317 319 321 324 327
285 284 293 299 295 291 290 289 280 277 277 279 287 281 286 294 298 298 299 297 297 297 297 300 306 310 311 309 309 310 309 308 311 312 312 313 313 313 314 315 318 318 319 323
286 287 296 298 299 296 290 285 293 284 284 280 281 286 292 296 296 298 298 298 297 297 299 299 300 301 305 307 307 309 309 307 310 312 311 311 311 311 312 313 314 316 318 323
290 283 292 295 297 297 292 294 285 286 277 276 280 282 284 290 293 296 296 295 297 299 300 300 300 301 301 301 306 306 309 308 309 309 311 313 313 313 313 313 314 314 316 317
290 286 286 289 288 287 287 288 290 288 285 276 274 280 292 293 295 295 296 298 297 299 300 301 302 302 301 300 301 304 305 306 305 308 310 312 312 312 315 315 314 314 315 315
291 286 281 284 290 293 292 289 290 282 281 285 282 280 296 296 296 295 296 299 301 300 302 301 302 303 303 300 300 302 303 302 304 306 305 306 306 308 309 310 311 313 315 317
291 282 277 279 283 288 287 290 290 288 286 281 277 280 296 297 297 295 295 298 301 303 304 304 302 302 303 304 303 302 304 305 305 305 305 305 307 308 309 310 309 311 313 315
294 282 281 276 281 283 283 287 289 288 282 281 284 286 291 293 294 295 295 297 299 300 302 304 304 304 304 305 305 304 303 303 304 304 304 305 305 306 306 307 307 308 310 312
287 282 283 285 287 288 287 287 288 285 287 283 286 286 290 293 293 295 295 297 298 300 302 303 304 304 304 305 304 304 303 303 304 304 303 303 303 304 304 305 305 306 307 308
287 282 284 284 288 287 286 288 290 290 291 290 289 288 293 295 294 294 294 295 296 297 298 300 303 301 299 300 303 303 303 304 305 304 304 305 305 304 304 304 304 304 304 305
284 282 280 279 286 285 281 287 289 290 291 290 283 288 292 292 293 293 293 295 296 297 298 297 297 298 298 299 300 300 301 303 303 303 304 305 305 305 305 305 304 303 302 303
283 282 281 278 281 275 286 295 293 291 292 292 291 291 293 293 294 295 296 295 295 296 296 297 297 298 299 299 299 300 300 302 303 303 305 305 305 305 304 304 303 302 302 302
287 284 283 276 275 282 288 293 292 289 287 292 291 292 292 293 293 292 295 296 294 294 297 299 300 300 300 299 300 299 299 300 300 301 304 304 305 304 304 304 303 302 301 301
290 290 285 280 278 271 284 293 295 293 282 292 291 290 290 291 286 289 294 297 297 298 299 300 300 300 299 299 300 298 298 299 298 299 301 304 305 305 304 304 303 303 301 303
283 281 278 281 280 280 290 293 295 279 281 290 291 291 291 290 292 295 298 298 299 300 299 299 297 297 298 299 299 297 298 297 299 300 301 302 304 305 305 304 303 302 301 303
282 282 281 283 278 275 293 291 283 287 290 292 292 293 293 294 296 296 298 297 296 297 297 297 296 296 298 299 298 297 296 299 301 301 301 301 303 304 305 302 302 301 301 301
283 287 280 283 280 288 290 290 292 293 291 292 293 295 295 295 296 297 295 295 295 294 295 296 294 294 295 297 298 296 296 300 300 300 300 300 302 303 304 303 301 301 301 302
292 290 281 285 287 288 290 292 293 294 293 295 295 296 297 295 296 294 294 293 292 293 292 293 293 292 292 294 295 296 296 299 300 299 300 301 302 303 303 303 303 303 302 302
287 287 284 284 286 289 291 292 292 294 295 296 297 297 297 296 295 293 291 291 291 291 291 291 291 291 290 291 292 294 296 298 298 299 301 301 303 303 303 304 304 304 305 304
289 284 278 279 285 288 289 291 294 294 294 295 295 296 297 296 293 291 290 291 290 289 290 291 292 294 295 297 292 293 296 297 298 298 299 300 301 302 304 304 304 296 299 298
Wind_Speed
2 3 6 10 9 8 5 5 12 14 16 4 13 17 11 9 8 11 11 9 11 12 11 7 8 7 6 4 8 8 8 7 10 5 5 4 7 8 9 9 8 6 7 9
5 8 10 5 6 8 8 12 14 12 15 6 9 11 14 6 7 8 10 9 11 5 2 3 8 8 9 8 6 6 8 7 5 5 4 4 4 5 6 5 10 15 13 8
7 10 1 4 7 7 7 7 9 12 7 5 2 7 8 5 5 6 6 4 5 9 8 5 7 10 8 9 9 9 8 8 6 5 4 3 2 2 4 4 4 5 6 7
7 10 10 11 6 3 3 4 7 7 2 7 3 11 10 7 7 5 8 7 8 7 6 5 9 8 9 10 8 8 8 8 7 7 5 5 4 4 3 4 4 4 6 4
12 5 6 6 8 3 7 4 5 4 4 2 3 1 11 3 7 10 9 9 6 10 10 11 11 15 10 8 9 7 7 7 7 6 5 4 3 3 2 1 3 3 4 5
6 1 2 3 2 5 3 3 2 1 3 3 6 7 11 12 9 6 4 8 9 12 10 12 14 11 8 7 8 8 8 7 7 8 8 9 8 5 3 3 3 2 3 3
0 2 2 1 2 2 8 6 5 5 2 12 5 4 18 6 8 6 5 10 12 12 15 9 12 15 12 11 10 8 8 7 7 7 7 7 8 7 6 5 4 3 1 2
2 6 2 2 3 5 1 6 5 7 5 8 6 8 7 6 2 2 1 6 8 10 7 11 15 17 15 11 9 9 9 7 7 7 7 6 6 5 4 5 4 4 3 3
2 4 3 1 4 7 4 5 4 3 1 2 5 8 10 6 1 3 7 9 11 9 9 8 8 5 9 8 10 10 9 8 9 9 6 5 4 6 6 6 4 3 3 3
3 3 4 3 1 5 5 3 2 2 4 5 4 4 9 11 6 4 5 4 6 8 11 10 8 8 5 7 5 8 10 12 10 8 7 6 8 7 6 4 5 4 4 2
4 3 5 3 2 3 3 2 2 2 4 4 1 5 5 4 10 9 7 4 5 5 6 7 5 6 5 2 3 7 7 9 8 8 7 7 7 7 4 3 2 2 1 3
2 4 3 8 7 9 4 3 5 2 3 3 2 7 6 10 16 11 12 11 4 6 4 5 6 6 7 6 4 5 5 5 6 8 7 8 7 6 6 6 6 6 6 5
7 1 3 9 6 6 2 2 3 2 1 4 2 6 1 3 5 8 9 11 9 6 10 7 3 0 1 4 4 3 6 7 5 3 6 7 7 7 8 7 6 5 4 4
8 4 7 7 7 5 6 6 7 6 4 3 9 13 9 5 6 11 10 10 11 9 8 9 5 6 5 5 6 4 4 6 7 6 5 6 7 8 7 6 5 4 4 3
4 5 6 7 9 8 9 12 11 8 14 8 9 11 4 6 6 7 8 8 8 9 12 10 7 5 6 6 6 4 6 4 4 6 7 7 5 5 6 6 6 5 3 3
1 3 1 5 10 7 9 5 9 7 5 10 13 12 4 6 5 6 8 11 13 13 13 13 9 7 6 6 5 5 5 6 5 6 7 8 9 8 8 7 7 7 5 5
3 4 2 5 4 8 4 1 2 4 5 5 5 4 6 9 8 7 8 14 16 17 17 8 8 8 7 7 7 8 7 6 6 7 8 9 9 11 11 9 7 6 6 6
5 4 3 4 6 3 3 4 6 10 12 4 5 7 10 13 14 13 13 17 17 15 11 12 12 15 14 9 9 9 8 8 11 12 12 14 12 13 8 7 7 7 6 7
6 5 1 2 2 6 5 4 4 7 13 4 6 12 13 13 14 16 10 9 11 10 13 17 16 18 19 16 14 14 16 15 15 17 15 11 10 11 9 10 9 8 6 6
5 1 5 2 1 5 4 3 6 5 8 3 6 9 15 16 15 16 8 16 21 22 20 19 18 16 19 21 20 21 22 19 19 17 17 16 14 15 14 13 11 8 6 9
2 2 4 3 3 8 2 5 5 1 5 10 9 13 16 17 16 24 24 23 19 21 19 18 26 29 25 24 24 24 22 25 22 18 18 20 18 18 17 14 11 9 8 8
4 2 2 2 2 8 1 2 1 4 6 11 13 16 20 22 23 24 25 24 27 27 27 27 25 25 24 23 21 24 25 23 21 18 18 15 14 13 12 10 9 7 7 7
2 5 4 7 7 3 2 6 6 2 9 12 16 19 21 24 26 23 23 28 28 30 26 24 23 25 23 22 23 25 21 22 21 19 18 18 18 13 13 11 8 5 6 9
0 2 2 4 2 4 8 2 2 8 12 16 17 20 22 26 21 29 25 25 24 25 24 22 23 24 25 21 22 21 21 20 19 18 17 14 14 12 10 7 7 8 8 9
4 2 1 6 6 10 2 11 14 17 17 19 21 22 23 25 23 27 26 27 25 24 22 21 22 22 25 24 22 20 19 19 15 15 14 15 11 12 11 10 10 10 11 10
3 3 3 5 1 4 12 14 18 17 19 20 22 22 23 17 25 29 26 23 23 23 23 21 23 24 26 23 20 16 16 13 16 14 12 9 9 8 8 8 8 7 10 13
Wind_Direction
12 65 234 234 207 231 238 259 264 279 278 277 273 272 276 267 290 291 286 227 229 233 244 179 189 162 147 175 157 160 151 157 163 154 145 152 176 179 210 222 199 239 234 200
10 252 244 227 232 230 243 258 273 272 260 190 251 260 278 243 256 266 272 229 224 247 212 198 179 167 180 171 179 157 146 157 166 148 144 151 157 192 199 208 209 211 212 188
190 238 286 258 281 274 256 238 269 263 276 258 251 283 285 277 267 279 268 237 270 239 209 190 218 194 171 178 179 170 161 147 144 133 103 82 62 124 169 193 212 224 234 179
232 253 233 259 241 227 264 281 279 266 225 259 151 274 278 272 272 258 273 272 272 254 250 220 203 208 197 191 174 160 158 152 144 148 142 161 159 172 223 158 185 245 252 295
229 197 196 241 252 176 234 303 284 299 261 10 242 193 280 249 272 267 278 294 273 238 232 230 204 212 203 165 168 163 151 149 143 130 133 131 144 182 193 219 249 193 189 196
232 301 113 225 263 224 322 314 293 62 129 244 248 183 270 269 236 232 230 291 294 300 259 228 214 194 190 159 158 156 159 161 159 154 157 155 162 177 170 192 231 208 204 173
0 256 294 201 25 70 50 40 320 296 254 250 168 213 243 283 275 247 277 296 305 279 272 222 176 179 164 180 169 159 160 171 175 168 162 167 173 177 185 194 191 206 168 206
160 315 16 31 129 205 160 166 189 271 248 275 339 242 263 256 325 81 16 336 334 334 286 210 192 175 173 170 166 164 171 166 179 181 187 177 166 175 191 195 179 183 178 206
149 265 293 154 189 143 188 198 161 221 252 299 242 300 293 292 236 5 51 26 2 9 29 21 12 110 149 170 178 174 173 196 193 194 181 198 190 192 207 211 185 186 194 206
190 270 255 298 135 240 171 143 242 251 225 209 264 254 248 327 314 317 0 58 5 21 35 28 27 34 13 334 227 183 190 193 198 194 192 200 203 209 222 193 206 215 249 242
129 126 285 357 202 208 326 268 234 266 235 227 284 256 209 287 297 311 285 253 131 57 48 31 15 12 18 357 329 292 221 198 191 185 190 200 206 208 202 202 241 248 272 257
45 131 260 251 290 274 199 219 160 248 291 274 284 273 38 11 321 321 312 311 290 138 106 48 22 25 356 350 277 230 263 300 260 191 191 202 192 198 205 205 213 204 216 210
180 124 344 336 351 352 13 179 153 86 342 235 201 268 7 6 314 329 343 333 298 281 287 268 198 337 272 322 326 263 201 213 228 275 237 206 209 196 212 210 196 185 187 213
123 141 171 202 224 202 282 260 242 170 213 239 229 273 302 328 331 332 336 332 324 319 320 303 301 261 242 207 250 279 292 225 195 173 211 244 209 196 192 189 195 189 190 225
115 199 195 238 249 249 264 276 286 215 236 225 261 270 310 306 305 310 316 327 327 322 320 310 292 269 264 277 254 260 272 252 215 195 169 200 218 227 192 199 204 217 234 255
34 249 224 270 264 267 282 299 308 19 324 250 257 274 224 288 310 312 312 320 313 305 297 297 297 309 321 322 305 296 286 262 264 218 213 197 193 198 207 210 214 206 207 226
176 151 110 269 311 306 302 103 288 269 247 258 253 252 328 317 306 299 286 298 290 289 293 288 293 294 287 282 286 286 280 278 251 232 247 236 214 214 212 206 203 212 227 242
150 133 150 274 347 257 238 187 255 292 296 268 302 321 316 305 299 290 280 272 276 276 266 286 290 291 276 256 256 264 263 267 278 275 258 244 228 224 208 202 206 211 206 215
180 138 150 196 207 281 230 230 280 311 297 167 314 315 300 296 290 284 254 253 265 256 267 270 272 273 280 281 278 270 266 261 259 257 255 242 223 222 208 217 213 206 204 215
102 326 132 142 213 252 233 245 315 325 278 108 312 294 306 321 301 297 286 290 282 275 269 267 264 271 266 258 261 265 264 258 252 252 253 251 230 226 221 219 217 207 197 219
337 323 166 167 230 280 226 301 313 234 256 324 325 306 300 296 282 291 293 290 292 294 289 285 283 276 264 256 252 247 253 250 249 247 251 241 235 226 221 213 204 202 210 221
175 157 208 172 219 274 54 358 150 247 322 315 308 297 295 289 291 292 293 300 298 292 285 280 275 269 262 260 255 247 244 249 241 235 239 251 233 217 214 206 210 193 200 222
161 200 198 178 224 215 130 217 266 338 297 294 299 293 292 294 299 298 304 296 298 294 288 286 280 277 269 261 247 245 248 243 231 229 229 229 233 228 213 211 199 197 194 219
0 66 186 19 309 325 292 236 269 302 308 309 304 305 306 300 315 307 301 303 299 298 295 290 281 272 267 257 247 240 240 241 222 221 218 222 219 207 203 205 207 207 206 213
213 14 314 266 311 324 82 333 327 320 318 315 313 307 307 313 310 312 305 304 304 301 302 296 286 277 267 257 242 234 231 224 226 218 210 210 207 206 215 216 211 207 217 208
165 181 146 244 23 252 291 305 311 311 312 310 310 313 311 317 315 311 306 307 303 303 302 300 296 294 287 259 220 215 210 216 212 205 204 209 212 198 203 207 208 222 210 208